Simultaneous Nadir Overpasses (SNOs) Predictions

Prediction of SNOs between LANDSAT-8 and METOP-A Satellite Orbit:

Table of predicted SNOs for the next 14.0 days since TLE Epoch: 1/24/2017
Index Date (LANDSAT-8) Time (LANDSAT-8) Lat,Lon (LANDSAT-8) SZA (LANDSAT-8 ) Date (METOP-A) Time (METOP-A) Lat,Lon (METOP-A) SZA (METOP-A ) Distance(km) Time Diff (sec)
1 01/25/2017 10:43:06 -81.14,-120.83 78.35 01/25/2017 10:42:43 -81.14,-120.68 78.35 2.71 23
2 01/25/2017 11:32:31 81.16, 47.22 101.70 01/25/2017 11:33:22 81.16, 47.31 101.73 1.59 51
3 01/28/2017 06:17:20 -81.14, -54.38 79.09 01/28/2017 06:17:05 -81.14, -54.33 79.09 0.80 15
4 01/28/2017 07:06:45 81.16, 113.65 100.96 01/28/2017 07:07:44 81.16, 113.65 100.98 0.52 59
5 01/31/2017 01:51:33 -81.14, 12.04 79.86 01/31/2017 01:51:26 -81.14, 11.99 79.87 0.91 7
6
